Regional Weather Roundup
Issued by NWS

Home | Current Version | Previous Version | Graphics & Text | Print | Product List | Glossary Off
Versions: 1 2 3 4 5 6 7 8 9 10 11 12 13 14 15 16 17 18 19 20 21 22 23 24 25 26 27 28 29 30 31 32 33 34 35 36 37 38 39 40 41 42 43 44 45 46 47 48 49 50

000
ASUS43 KMKX 301600
RWRWI

WISCONSIN REGIONAL WEATHER ROUNDUP
NATIONAL WEATHER SERVICE MILWAUKEE/SULLIVAN WI
1100 AM CDT SAT JUL 30 2016

NOTE: "FAIR" INDICATES FEW OR NO CLOUDS BELOW 12,000 FEET WITH NO
SIGNIFICANT WEATHER AND/OR OBSTRUCTIONS TO VISIBILITY.

WIZ001-002-006>008-014>016-023>028-301700-
NORTHWEST WISCONSIN

CITY           SKY/WX    TMP DP  RH WIND       PRES   REMARKS
SUPERIOR ARPT  MOSUNNY   67  61  81 NE5       30.07S
ASHLAND        SUNNY     75  59  57 VRB3      30.07S
HAYWARD        SUNNY     74  55  51 S9        30.08S
SIREN          NOT AVBL
CUMBERLAND     CLOUDY    70  54  56 SE3       30.08R
RICE LAKE      SUNNY     73  56  55 CALM      30.08R
CHETEK         SUNNY     73  56  56 SE3       30.07R
LADYSMITH      SUNNY     72  56  56 CALM      30.09S
EAU CLAIRE     NOT AVBL
MENOMONIE      SUNNY     77  56  49 E6        30.05S
NEW RICHMOND   PTSUNNY   74  61  65 SE3       30.05S
OSCEOLA        PTSUNNY   75  63  66 SE3       30.07S
$$

WIZ003>005-009-010-017-018-301700-
NORTH CENTRAL WISCONSIN

CITY           SKY/WX    TMP DP  RH WIND       PRES   REMARKS
MANITOWISH WTR CLOUDY    68  59  72 E3        30.10S
ARBOR VITAE    SUNNY     72  54  53 S9        30.10S
WOODRUFF       SUNNY     72  54  53 S9        30.10S
RHINELANDER    SUNNY     73  58  59 E8        30.10F
EAGLE RIVER    SUNNY     73  52  48 SE6       30.10S
LAND O LAKES   MOSUNNY   73  52  47 SE6       30.12S
PHILLIPS       SUNNY     73  56  55 E8        30.08S
TOMAHAWK       SUNNY     73  57  58 E5        30.09S
MEDFORD        CLOUDY    71  59  66 E6        30.08S
MERRILL        SUNNY     73  62  69 E6        30.09S
$$

WIZ029-030-035-036-043>047-301700-
CENTRAL WISCONSIN

CITY           SKY/WX    TMP DP  RH WIND       PRES   REMARKS
WAUSAU         SUNNY     72  60  66 NE8       30.06S
MOSINEE        SUNNY     73  63  68 E7        30.08S
MARSHFIELD     SUNNY     75  61  61 E6        30.06S
STEVENS POINT  CLOUDY    71  59  66 E6        30.07S
WAUPACA        SUNNY     74  61  63 E8        30.06S
WAUTOMA        SUNNY     72  62  71 E10         N/A
WISC RAPIDS    CLOUDY    72  60  66 E6        30.07S
CAMP DOUGLAS   NOT AVBL
$$

WIZ011>013-019>022-031-037>040-048>050-301700-
NORTHEAST WISCONSIN

CITY           SKY/WX    TMP DP  RH WIND       PRES   REMARKS
ANTIGO           N/A     70  60  70 E10       30.10S HAZE
SHAWANO        SUNNY     76  59  55 NE9       30.08S
OCONTO         SUNNY     73  59  62 E12       30.08S
STURGEON BAY   SUNNY     73  55  53 E10       30.09S
GREEN BAY      SUNNY     74  60  61 NE13      30.06S
MANITOWOC      NOT AVBL
APPLETON       PTSUNNY   73  54  49 NE10G17   30.05S
CLINTONVILLE   SUNNY     73  55  53 NE9       30.06F
OSHKOSH        SUNNY     73  59  61 NE12      30.04F
$$

WIZ032>034-041-042-053>061-301700-
SOUTHWEST WISCONSIN

CITY           SKY/WX    TMP DP  RH WIND       PRES   REMARKS
LA CROSSE      MOSUNNY   76  62  62 NE3       30.03R
SPARTA         CLOUDY    74  62  66 E5        30.05S
VIROQUA        CLOUDY    72  63  74 E3        30.05S
BOSCOBEL       CLOUDY    74  64  71 VRB5      30.02S
PRAIRIE DU CHI CLOUDY    73  65  75 E6        30.01S
PLATTEVILLE    CLOUDY    74  68  80 NE8       30.02S
$$

WIZ056-057-062-063-064-067-068-301700-
SOUTH CENTRAL WISCONSIN

CITY           SKY/WX    TMP DP  RH WIND       PRES   REMARKS
REEDSBURG      PTSUNNY   71  62  73 E7        30.04S
BARABOO/DELLS  CLOUDY    70  62  74 E8        30.04S
LONE ROCK      NOT AVBL
MINERAL POINT  MOSUNNY   73  64  73 NE7       30.03S
MADISON        CLOUDY    74  60  61 NE9       30.02S
MIDDLETON      CLOUDY    74  62  67 E9        30.04R
WATERTOWN      CLOUDY    75  62  63 NE10G16   30.02S
MONROE         CLOUDY    72  63  73 NE8       30.02R
JANESVILLE     PTSUNNY   75  64  69 NE12      30.01R
$$

WIZ051-052-058>065-066-070>072-301700-
SOUTHEAST WISCONSIN

CITY           SKY/WX    TMP DP  RH WIND       PRES   REMARKS
MILWAUKEE      PTSUNNY   74  64  71 NE14      30.02S
WAUKESHA       MOSUNNY   72  59  64 NE10      30.04R
MILWAUKEE/TIMM MOSUNNY   72  57  60 NE8       30.04R
RACINE         PTSUNNY   73  64  73 NE13      30.03S
BURLINGTON     MOSUNNY   75  62  64 E14       30.01S
KENOSHA        PTSUNNY   74  65  73 NE8       30.01S
FOND DU LAC    SUNNY     75  61  61 NE12      30.05S
SHEBOYGAN      CLOUDY    70  60  70 NE14      30.05S
WEST BEND      CLOUDY    72  59  64 NE14      30.04S
JUNEAU         CLOUDY    71  61  71 NE9       30.05S
$$

LSZ147-162-301700-
LAKE SUPERIOR

STATION/POSITION TIME  TEMP    WIND        PRES    WAVE
                       AIR SEA DIR/SP/G            HT/PER
                 (UTC) (F)     (DEG/KT/KT) (MB)    (FT/S)
W MID LAKE BUOY  1450   63 62   80/  4/  4 1018.1R   1
DEVILS ISLAND    1500   65      10/  3/  3 1018.2F
PORT WING        1540   64     350/  2/  3 1018.6S
SAXON HARBOR     1540   68      30/  4/  6 1018.3S
$$

LMZ867-665-643>646-301700-
LAKE MICHIGAN

STATION/POSITION TIME  TEMP    WIND        PRES    WAVE
                       AIR SEA DIR/SP/G            HT/PER
                 (UTC) (F)     (DEG/KT/KT) (MB)    (FT/S)
CHAMBERS ISLAND  1500   71      80/  8/ 11 1018.6R
S GREEN BAY BUOY 1500   70 71   60/ 12/ 14 1017.9
N MID LAKE BUOY  1450   69 70   80/ 10/ 10 1018.2F   1/ 3
NORTHPORT PIER   1500   71      90/  8/ 10 1018.6F
SISTER BAY       1536   74     160/ 12/ 15   N/A
ALGOMA LAKESHORE 1513           70/ 13/ 15   N/A
KEWAUNEE LAKESHO 1500   70      60/  5/  8 1017.8R
SHEBOYGAN LAKESH 1500   68      40/ 10/ 10 1017.7R
PORT WASHINGTON  1500   71      50/  6/  8 1017.6S
ATWATER BUOY     1500   65 62   20/  8/ 10 1018.3S
MILWAUKEE LAKESH 1510   67      20/ 11/ 12   N/A
S MID LAKE BUOY  1450   68 73   70/  8/ 10 1015.5R   2/ 4
KENOSHA   LAKESH 1500   70      50/ 11/ 12 1015.6F
$$

TC  - TEMPERATURE IN CELSIUS
VSB - VISIBILITY IN STATUTE MILES
WCI - WIND CHILL INDEX
HX  - HEAT INDEX




USA.gov is the U.S. government's official web portal to all federal, state and local government web resources and services.